Back to catalog

NOAA 16 DEB

AlivePO
NORAD 41512·DEBRIS·🇺🇸 United States

Launched Sep 21, 2000 from Vandenberg Space Force Base

Loading…

Next Passes (next 24 hours)

TLE

FreshSource: Space-Track

Epoch: Sep 14, 2026, 13:15 UTC

1 41512U 00055ML  26257.55239132  .00004617  00000-0  10350-2 0  9994
2 41512  98.9512 115.2382 0028581 132.5825 227.7790 14.56893609547350

Track NOAA 16 DEB in real time with AllMySat

Download on the App Store